Hourly Data Report for October 14, 2016

All times are specified in Local Standard Time (LST). Add 1 hour to adjust for Daylight Saving Time where and when it is observed.

WINNIPEG A CS
MANITOBA

49°55'00.000" N
97°14'58.000" W
238.70 m
502S001
71849
XWG

Download Data

Hourly Data (October 2016)
Hourly Data Report for October 14, 2016
Temp Definition
°C
Dew Point Temp Definition
°C
Rel Hum Definition
%
Wind Dir Definition
10's deg

Wind Spd Definition
km/h
Visibility Definition
km
Stn Press Definition
kPa
Hmdx Definition


Wind Chill Definition


Weather Definition


TIME
00:00 1.9 -3.1 70 9 12   98.47     LegendNANA
01:00 0.8 -2.6 78 9 10   98.31     LegendNANA
02:00 2.8 -1.1 75 14 13   98.25     LegendNANA
03:00 3.7 -0.3 75 11 8   98.22     LegendNANA
04:00 4.3 0.3 75 13 12   98.09     LegendNANA
05:00 4.5 1.0 78 12 11   98.01     LegendNANA
06:00 5.1 1.4 77 12 14   97.80     LegendNANA
07:00 4.4 1.7 82 14 17   97.70     LegendNANA
08:00 7.0 3.0 76 14 23   97.56     LegendNANA
09:00 8.8 4.0 72 16 27   97.51     LegendNANA
10:00 9.9 4.6 69 16 32   97.43     LegendNANA
11:00 11.5 5.1 65 17 39   97.31     LegendNANA
12:00 12.2 5.8 65 17 38   97.20     LegendNANA
13:00 13.0 6.3 64 17 32   97.12     LegendNANA
14:00 12.5 6.3 66 17 33   97.00     LegendNANA
15:00 12.8 6.8 67 17 30   96.96     LegendNANA
16:00 12.8 6.8 67 17 33   96.93     LegendNANA
17:00 12.4 6.9 69 17 20   96.91     LegendNANA
18:00 11.9 6.8 71 17 24   96.91     LegendNANA
19:00 12.0 7.0 72 17 19   96.86     LegendNANA
20:00 11.8 7.3 74 16 18   96.82     LegendNANA
21:00 12.0 7.5 74 17 18   96.78     LegendNANA
22:00 12.0 7.6 75 18 19   96.71     LegendNANA
23:00 11.8 7.8 76 17 18   96.62     LegendNANA

Notes on Data Quality.

Legend

  • E = Estimated
  • M = Missing
  • NA = Not Available
  • ‡ = Partner data that is not subject to review by the National Climate Archives
Date modified: